EW3708 Weather Reports


time (UTC)temp
F
wind
direction
speed
knots
gust
knots
rain 1hr
in
rain 24hr
in
rain mn
in
humidity
%
barometer
mb
20260503000026 46 281 0.0 2.6 0.00 0.28 0.23 50 1011.4
20260502234525 47 281 0.0 1.7 0.00 0.28 0.23 50 1011.2
20260502233024 47 281 0.0 1.7 0.00 0.28 0.23 48 1011.3
20260502231527 47 281 0.0 1.7 0.00 0.28 0.23 46 1011.3
20260502230024 48 281 0.9 3.5 0.00 0.28 0.23 46 1011.4
20260502224523 48 292 0.9 2.6 0.00 0.28 0.23 44 1011.2
20260502223022 48 302 0.9 2.6 0.00 0.28 0.23 43 1011.2
20260502221522 48 315 0.9 3.5 0.00 0.28 0.23 44 1011.0
20260502220031 49 275 0.9 2.6 0.00 0.28 0.23 42 1011.0
20260502214521 49 202 0.9 4.3 0.00 0.28 0.23 43 1010.9
20260502213020 50 279 1.7 5.2 0.00 0.28 0.23 41 1010.7
20260502211532 51 262 2.6 4.3 0.00 0.28 0.23 41 1010.6
20260502210019 51 313 1.7 4.3 0.00 0.28 0.23 43 1010.5
20260502204519 51 236 2.6 5.2 0.00 0.28 0.23 39 1010.6
20260502203018 52 285 2.6 5.2 0.00 0.28 0.23 39 1010.7
20260502201517 51 206 2.6 5.2 0.00 0.28 0.23 43 1010.7
20260502200018 52 292 1.7 4.3 0.00 0.28 0.23 41 1010.8
20260502194517 52 261 0.9 4.3 0.00 0.28 0.23 38 1010.9
20260502193016 52 227 1.7 7.8 0.00 0.28 0.23 38 1011.1
20260502191522 51 304 2.6 5.2 0.00 0.28 0.23 37 1011.3
20260502190016 51 285 1.7 6.1 0.00 0.28 0.23 38 1011.6
20260502184515 52 233 1.7 4.3 0.00 0.28 0.23 40 1011.7
20260502183013 52 317 1.7 5.2 0.00 0.28 0.23 43 1011.7
20260502181512 50 289 0.0 5.2 0.00 0.28 0.23 43 1011.8
20260502163007 51 355 1.7 6.1 0.00 0.28 0.23 49 1012.1
20260502161503 50 53 0.9 5.2 0.00 0.28 0.23 54 1012.0
20260502151603 46 304 1.7 4.3 0.00 0.28 0.23 57 1012.2
20260502150105 47 351 1.7 6.1 0.00 0.28 0.23 58 1012.2
20260502123056 39 292 0.9 2.6 0.00 0.28 0.23 90 1012.2
20260502121555 39 317 1.7 6.1 0.00 0.28 0.23 89 1012.2
20260502120107 39 294 0.9 2.6 0.00 0.28 0.23 92 1012.2
20260502114600 38 294 0.9 2.6 0.00 0.28 0.23 92 1012.3
20260502113053 38 286 0.9 1.7 0.00 0.28 0.23 92 1012.3
20260502111558 38 286 0.0 1.7 0.00 0.28 0.23 92 1012.4
20260502110051 37 286 0.0 2.6 0.00 0.28 0.23 91 1012.3
20260502104553 37 286 0.0 2.6 0.00 0.28 0.23 91 1012.3
20260502103048 37 286 0.9 2.6 0.00 0.28 0.23 91 1012.0
20260502101550 37 286 0.9 4.3 0.01 0.28 0.23 91 1011.7
20260502070026 43 198 0.0 0.0 0.04 0.26 0.21 93 1010.6
20260502064522 43 198 0.0 0.0 0.04 0.26 0.21 93 1010.8
20260502063021 43 198 0.0 0.0 0.04 0.25 0.20 93 1011.0
20260502061519 43 198 0.0 0.0 0.05 0.24 0.19 92 1011.3
20260502060017 43 198 0.0 1.7 0.07 0.22 0.17 92 1011.6
20260502054519 43 252 0.0 3.5 0.11 0.22 0.17 92 1011.7
20260502053014 44 155 0.0 1.7 0.13 0.21 0.16 92 1011.8
20260502051529 44 155 0.0 1.7 0.12 0.18 0.14 92 1011.9
20260502050010 44 247 0.0 1.7 0.10 0.15 0.10 93 1012.0
20260502044510 45 247 0.0 1.7 0.06 0.11 0.06 92 1012.1
20260502043006 45 247 0.0 0.9 0.03 0.08 0.03 92 1012.0
20260502041505 45 247 0.0 1.7 0.01 0.06 0.01 92 1011.9
20260502040003 45 247 0.9 1.7 0.01 0.05 0.00 92 1011.6
20260502034502 45 247 0.0 0.9 0.01 0.05 0.05 92 1011.4
20260502033002 45 247 0.0 0.9 0.01 0.05 0.05 92 1011.5
20260502031501 45 247 0.0 1.7 0.02 0.05 0.05 91 1011.4
20260502030103 45 247 0.0 0.9 0.01 0.04 0.04 91 1011.3
20260502024600 45 247 0.9 1.7 0.01 0.04 0.04 91 1011.3
20260502023100 45 280 0.0 0.0 0.01 0.04 0.04 91 1011.5
20260502021600 45 280 0.0 0.0 0.00 0.03 0.03 90 1011.8
20260502020109 46 280 0.0 0.0 0.01 0.03 0.03 90 1011.7
20260502014558 46 280 0.0 0.0 0.01 0.04 0.03 89 1011.7
20260502013102 46 280 0.0 0.9 0.01 0.04 0.03 88 1011.7
20260502011558 46 280 0.0 0.9 0.02 0.04 0.03 87 1011.6
20260502010058 47 280 0.0 0.9 0.02 0.03 0.02 87 1011.5
20260502004557 47 280 0.0 0.9 0.02 0.03 0.02 85 1011.4
20260502003055 48 280 0.0 0.9 0.02 0.03 0.02 82 1011.4
20260502001555 49 280 0.0 1.7 0.01 0.02 0.01 77 1011.3